| time (UTC) | temp F | wind direction | speed MPH | gust MPH | rain 1hr in | rain 24hr in | rain mn in | humidity % | barometer mb |
| 20260904093703 | 81 | 114 | 4.0 | 6.0 | 0.00 | 0.00 | 0.00 | 70 | 1000.0 |
| 20260904093203 | 81 | 138 | 5.0 | 6.0 | 0.00 | 0.00 | 0.00 | 69 | 1000.0 |
| 20260904092704 | 81 | 140 | 3.0 | 5.0 | 0.00 | 0.00 | 0.00 | 68 | 1000.0 |
| 20260904092204 | 81 | 140 | 3.0 | 5.0 | 0.00 | 0.00 | 0.00 | 68 | 1000.0 |
| 20260904091704 | 81 | 142 | 4.0 | 6.0 | 0.00 | 0.00 | 0.00 | 68 | 1000.0 |
| 20260904091203 | 81 | 148 | 3.0 | 5.0 | 0.00 | 0.00 | 0.00 | 67 | 1000.0 |
| 20260904090704 | 81 | 151 | 3.0 | 5.0 | 0.00 | 0.00 | 0.00 | 67 | 1000.0 |
| 20260904085703 | 81 | 139 | 5.0 | 6.0 | 0.00 | 0.00 | 0.00 | 67 | 1000.0 |
| 20260904085204 | 81 | 142 | 3.0 | 6.0 | 0.00 | 0.00 | 0.00 | 66 | 1000.0 |
| 20260904084704 | 81 | 136 | 3.0 | 6.0 | 0.00 | 0.00 | 0.00 | 66 | 1000.0 |
| 20260904084203 | 81 | 149 | 3.0 | 6.0 | 0.00 | 0.00 | 0.00 | 67 | 1000.0 |
| 20260904083203 | 81 | 132 | 4.0 | 6.0 | 0.00 | 0.00 | 0.00 | 67 | 1000.0 |
| 20260904082704 | 82 | 124 | 4.0 | 6.0 | 0.00 | 0.00 | 0.00 | 66 | 1000.0 |
| 20260904082203 | 82 | 128 | 5.0 | 6.0 | 0.00 | 0.00 | 0.00 | 65 | 1000.0 |
| 20260904081704 | 82 | 123 | 3.0 | 5.0 | 0.00 | 0.00 | 0.00 | 63 | 1000.0 |
| 20260904080703 | 83 | 171 | 3.0 | 6.0 | 0.00 | 0.00 | 0.00 | 62 | 1000.0 |
| 20260904080204 | 83 | 190 | 2.0 | 3.0 | 0.00 | 0.00 | 0.00 | 63 | 1000.0 |
| 20260904075704 | 83 | 198 | 3.0 | 5.0 | 0.00 | 0.00 | 0.00 | 63 | 1000.0 |
| 20260904075203 | 83 | 187 | 2.0 | 3.0 | 0.00 | 0.00 | 0.00 | 63 | 1000.0 |
| 20260904074704 | 82 | 156 | 2.0 | 5.0 | 0.00 | 0.00 | 0.00 | 63 | 1000.0 |
| 20260904074203 | 82 | 143 | 3.0 | 6.0 | 0.00 | 0.00 | 0.00 | 64 | 1000.0 |
| 20260904073704 | 82 | 136 | 5.0 | 7.0 | 0.00 | 0.00 | 0.00 | 64 | 1000.0 |
| 20260904073203 | 82 | 132 | 5.0 | 7.0 | 0.00 | 0.00 | 0.00 | 63 | 1000.0 |
| 20260904072703 | 83 | 140 | 5.0 | 7.0 | 0.00 | 0.00 | 0.00 | 63 | 1000.0 |
| 20260904071703 | 82 | 136 | 5.0 | 9.0 | 0.00 | 0.00 | 0.00 | 64 | 1000.0 |
| 20260904070703 | 83 | 133 | 5.0 | 7.0 | 0.00 | 0.00 | 0.00 | 62 | 1000.0 |
| 20260904070204 | 84 | 133 | 5.0 | 6.0 | 0.00 | 0.00 | 0.00 | 59 | 1000.0 |
| 20260904065704 | 85 | 151 | 3.0 | 5.0 | 0.00 | 0.00 | 0.00 | 58 | 1000.0 |
| 20260904065203 | 85 | 170 | 5.0 | 7.0 | 0.00 | 0.00 | 0.00 | 57 | 1000.0 |
| 20260904064704 | 85 | 171 | 6.0 | 8.0 | 0.00 | 0.00 | 0.00 | 56 | 1000.0 |
| 20260904064203 | 85 | 184 | 5.0 | 8.0 | 0.00 | 0.00 | 0.00 | 56 | 1000.0 |
| 20260904063203 | 86 | 174 | 6.0 | 9.0 | 0.00 | 0.00 | 0.00 | 55 | 1000.0 |
| 20260904062703 | 86 | 180 | 6.0 | 9.0 | 0.00 | 0.00 | 0.00 | 55 | 1000.0 |
| 20260904062204 | 86 | 178 | 6.0 | 9.0 | 0.00 | 0.00 | 0.00 | 55 | 1000.0 |
| 20260904061703 | 86 | 192 | 6.0 | 9.0 | 0.00 | 0.00 | 0.00 | 55 | 1000.0 |
| 20260904061204 | 86 | 188 | 6.0 | 9.0 | 0.00 | 0.00 | 0.00 | 55 | 1000.0 |
| 20260904060703 | 86 | 186 | 6.0 | 8.0 | 0.00 | 0.00 | 0.00 | 55 | 1000.0 |
| 20260904060203 | 86 | 185 | 4.0 | 8.0 | 0.00 | 0.00 | 0.00 | 55 | 1000.0 |
| 20260904055204 | 86 | 177 | 5.0 | 7.0 | 0.00 | 0.00 | 0.00 | 54 | 1000.0 |
| 20260904054704 | 86 | 179 | 6.0 | 8.0 | 0.00 | 0.00 | 0.00 | 54 | 1000.0 |
| 20260904054203 | 87 | 181 | 5.0 | 8.0 | 0.00 | 0.00 | 0.00 | 53 | 1000.0 |
| 20260904053704 | 87 | 179 | 6.0 | 8.0 | 0.00 | 0.00 | 0.00 | 53 | 1000.0 |
| 20260904053203 | 87 | 176 | 6.0 | 10.0 | 0.00 | 0.00 | 0.00 | 52 | 1000.0 |
| 20260904052204 | 87 | 185 | 6.0 | 10.0 | 0.00 | 0.00 | 0.00 | 52 | 1000.0 |
| 20260904051704 | 87 | 178 | 6.0 | 8.0 | 0.00 | 0.00 | 0.00 | 52 | 1000.0 |
| 20260904051203 | 87 | 167 | 6.0 | 8.0 | 0.00 | 0.00 | 0.00 | 51 | 1000.0 |
| 20260904050704 | 88 | 178 | 6.0 | 10.0 | 0.00 | 0.00 | 0.00 | 51 | 1000.0 |
| 20260904050204 | 88 | 182 | 6.0 | 9.0 | 0.00 | 0.00 | 0.00 | 51 | 1000.0 |
| 20260904045704 | 88 | 181 | 5.0 | 8.0 | 0.00 | 0.00 | 0.00 | 50 | 1000.0 |
| 20260904045203 | 88 | 178 | 6.0 | 8.0 | 0.00 | 0.00 | 0.00 | 50 | 1000.0 |
| 20260904043703 | 88 | 176 | 7.0 | 12.0 | 0.00 | 0.00 | 0.00 | 50 | 1000.0 |
| 20260904043203 | 88 | 167 | 8.0 | 12.0 | 0.00 | 0.00 | 0.00 | 49 | 1000.0 |
| 20260904042704 | 88 | 167 | 9.0 | 14.0 | 0.00 | 0.00 | 0.00 | 49 | 1000.0 |
| 20260904042204 | 88 | 175 | 8.0 | 13.0 | 0.00 | 0.00 | 0.00 | 49 | 1000.0 |
| 20260904040704 | 89 | 164 | 9.0 | 12.0 | 0.00 | 0.00 | 0.00 | 48 | 1000.0 |
| 20260904040204 | 89 | 167 | 7.0 | 13.0 | 0.00 | 0.00 | 0.00 | 48 | 1000.0 |
| 20260904035703 | 89 | 165 | 8.0 | 13.0 | 0.00 | 0.00 | 0.00 | 47 | 1000.0 |
| 20260904035204 | 90 | 174 | 7.0 | 10.0 | 0.00 | 0.00 | 0.00 | 47 | 1000.0 |
| 20260904034703 | 90 | 163 | 6.0 | 9.0 | 0.00 | 0.00 | 0.00 | 47 | 1000.0 |
| 20260904034203 | 90 | 162 | 6.0 | 10.0 | 0.00 | 0.00 | 0.00 | 46 | 1000.0 |
| 20260904033704 | 90 | 154 | 7.0 | 12.0 | 0.00 | 0.00 | 0.00 | 46 | 1000.0 |
| 20260904033203 | 90 | 165 | 9.0 | 14.0 | 0.00 | 0.00 | 0.00 | 45 | 1000.0 |
| 20260904032704 | 90 | 173 | 10.0 | 15.0 | 0.00 | 0.00 | 0.00 | 45 | 1000.0 |
| 20260904032203 | 90 | 171 | 8.0 | 13.0 | 0.00 | 0.00 | 0.00 | 46 | 1000.0 |
| 20260904031704 | 90 | 175 | 8.0 | 13.0 | 0.00 | 0.00 | 0.00 | 46 | 1000.0 |
| 20260904030703 | 90 | 170 | 9.0 | 13.0 | 0.00 | 0.00 | 0.00 | 46 | 1000.0 |
| 20260904025703 | 91 | 173 | 9.0 | 13.0 | 0.00 | 0.00 | 0.00 | 45 | 1000.0 |
| 20260904024704 | 91 | 175 | 9.0 | 12.0 | 0.00 | 0.00 | 0.00 | 44 | 1000.0 |
| 20260904024203 | 91 | 167 | 7.0 | 12.0 | 0.00 | 0.00 | 0.00 | 44 | 1000.0 |
| 20260904023704 | 91 | 174 | 7.0 | 10.0 | 0.00 | 0.00 | 0.00 | 44 | 1000.0 |
| 20260904023204 | 91 | 164 | 9.0 | 12.0 | 0.00 | 0.00 | 0.00 | 44 | 1000.0 |
| 20260904022704 | 91 | 170 | 6.0 | 9.0 | 0.00 | 0.00 | 0.00 | 43 | 1000.0 |
| 20260904022203 | 92 | 172 | 7.0 | 10.0 | 0.00 | 0.00 | 0.00 | 43 | 1000.0 |
| 20260904021704 | 92 | 157 | 7.0 | 9.0 | 0.00 | 0.00 | 0.00 | 43 | 1000.0 |
| 20260904021203 | 92 | 162 | 6.0 | 10.0 | 0.00 | 0.00 | 0.00 | 43 | 1000.0 |
| 20260904020704 | 92 | 155 | 6.0 | 9.0 | 0.00 | 0.00 | 0.00 | 43 | 1000.0 |
| 20260904020203 | 92 | 155 | 7.0 | 10.0 | 0.00 | 0.00 | 0.00 | 42 | 1000.0 |
| 20260904015703 | 92 | 171 | 7.0 | 9.0 | 0.00 | 0.00 | 0.00 | 42 | 1000.0 |
| 20260904015204 | 92 | 153 | 6.0 | 10.0 | 0.00 | 0.00 | 0.00 | 42 | 1000.0 |
| 20260904014204 | 93 | 128 | 5.0 | 8.0 | 0.00 | 0.00 | 0.00 | 41 | 1000.0 |
| 20260904013704 | 93 | 157 | 5.0 | 9.0 | 0.00 | 0.00 | 0.00 | 41 | 1000.0 |
| 20260904013204 | 93 | 159 | 5.0 | 8.0 | 0.00 | 0.00 | 0.00 | 40 | 1000.0 |
| 20260904012204 | 94 | 165 | 6.0 | 9.0 | 0.00 | 0.00 | 0.00 | 39 | 1000.0 |
| 20260904011704 | 94 | 174 | 5.0 | 7.0 | 0.00 | 0.00 | 0.00 | 39 | 1000.0 |
| 20260904011203 | 94 | 157 | 4.0 | 7.0 | 0.00 | 0.00 | 0.00 | 39 | 1000.0 |
| 20260904010204 | 95 | 179 | 5.0 | 7.0 | 0.00 | 0.00 | 0.00 | 38 | 1000.0 |
| 20260904005703 | 95 | 171 | 5.0 | 9.0 | 0.00 | 0.00 | 0.00 | 37 | 1000.0 |
| 20260904005204 | 95 | 178 | 5.0 | 7.0 | 0.00 | 0.00 | 0.00 | 37 | 1000.0 |
| 20260904004703 | 95 | 167 | 5.0 | 8.0 | 0.00 | 0.00 | 0.00 | 37 | 1000.0 |
| 20260904003704 | 96 | 165 | 5.0 | 7.0 | 0.00 | 0.00 | 0.00 | 36 | 1000.0 |
| 20260904001703 | 97 | 173 | 5.0 | 8.0 | 0.00 | 0.00 | 0.00 | 34 | 1000.0 |
| 20260904001204 | 97 | 150 | 6.0 | 8.0 | 0.00 | 0.00 | 0.00 | 34 | 1000.0 |
| 20260904000704 | 98 | 137 | 4.0 | 8.0 | 0.00 | 0.00 | 0.00 | 33 | 1000.0 |
| 20260904000204 | 98 | 179 | 6.0 | 9.0 | 0.00 | 0.00 | 0.00 | 32 | 1000.0 |
| 20260903235704 | 98 | 148 | 6.0 | 9.0 | 0.00 | 0.00 | 0.00 | 32 | 1000.0 |
| 20260903235203 | 99 | 141 | 5.0 | 12.0 | 0.00 | 0.00 | 0.00 | 32 | 1000.0 |
| 20260903233203 | 99 | 168 | 7.0 | 12.0 | 0.00 | 0.00 | 0.00 | 30 | 1000.0 |
| 20260903232704 | 99 | 135 | 6.0 | 10.0 | 0.00 | 0.00 | 0.00 | 30 | 1000.0 |
| 20260903232203 | 100 | 170 | 9.0 | 13.0 | 0.00 | 0.00 | 0.00 | 29 | 1000.0 |
| 20260903231703 | 100 | 179 | 7.0 | 12.0 | 0.00 | 0.00 | 0.00 | 28 | 1000.0 |
| 20260903231204 | 100 | 181 | 5.0 | 9.0 | 0.00 | 0.00 | 0.00 | 29 | 1000.0 |
| 20260903230703 | 100 | 180 | 7.0 | 10.0 | 0.00 | 0.00 | 0.00 | 29 | 1000.0 |
| 20260903230204 | 100 | 164 | 7.0 | 10.0 | 0.00 | 0.00 | 0.00 | 29 | 1000.0 |
| 20260903225704 | 100 | 169 | 6.0 | 10.0 | 0.00 | 0.00 | 0.00 | 29 | 1000.0 |
| 20260903224703 | 100 | 193 | 6.0 | 10.0 | 0.00 | 0.00 | 0.00 | 28 | 1000.0 |
| 20260903224204 | 100 | 179 | 9.0 | 14.0 | 0.00 | 0.00 | 0.00 | 28 | 1000.0 |
| 20260903223704 | 100 | 170 | 10.0 | 16.0 | 0.00 | 0.00 | 0.00 | 28 | 1000.0 |
| 20260903222703 | 100 | 177 | 9.0 | 12.0 | 0.00 | 0.00 | 0.00 | 28 | 1000.0 |
| 20260903221703 | 100 | 165 | 8.0 | 15.0 | 0.00 | 0.00 | 0.00 | 29 | 1000.0 |
| 20260903221204 | 99 | 134 | 11.0 | 17.0 | 0.00 | 0.00 | 0.00 | 29 | 1000.0 |
| 20260903220704 | 100 | 111 | 7.0 | 15.0 | 0.00 | 0.00 | 0.00 | 29 | 1000.0 |
| 20260903220204 | 100 | 164 | 7.0 | 10.0 | 0.00 | 0.00 | 0.00 | 29 | 1000.0 |
| 20260903215704 | 100 | 167 | 10.0 | 16.0 | 0.00 | 0.00 | 0.00 | 28 | 1000.0 |
| 20260903215204 | 101 | 184 | 10.0 | 14.0 | 0.00 | 0.00 | 0.00 | 28 | 1000.0 |
| 20260903214703 | 101 | 133 | 5.0 | 13.0 | 0.00 | 0.00 | 0.00 | 28 | 1000.0 |
| 20260903214205 | 101 | 165 | 4.0 | 9.0 | 0.00 | 0.00 | 0.00 | 28 | 1000.0 |
| 20260903213704 | 101 | 215 | 5.0 | 9.0 | 0.00 | 0.00 | 0.00 | 27 | 1000.0 |
| 20260903212710 | 101 | 193 | 10.0 | 14.0 | 0.00 | 0.00 | 0.00 | 28 | 1000.0 |
| 20260903212204 | 101 | 186 | 9.0 | 14.0 | 0.00 | 0.00 | 0.00 | 27 | 1000.0 |
| 20260903211704 | 100 | 179 | 13.0 | 20.0 | 0.00 | 0.00 | 0.00 | 28 | 1000.0 |
| 20260903211203 | 100 | 183 | 9.0 | 16.0 | 0.00 | 0.00 | 0.00 | 28 | 1000.0 |
| 20260903210704 | 100 | 162 | 7.0 | 15.0 | 0.00 | 0.00 | 0.00 | 28 | 1000.0 |
| 20260903205704 | 100 | 103 | 10.0 | 15.0 | 0.00 | 0.00 | 0.00 | 28 | 1000.0 |
| 20260903205224 | 100 | 137 | 6.0 | 15.0 | 0.00 | 0.00 | 0.00 | 28 | 1000.0 |
| 20260903204727 | 100 | 183 | 10.0 | 18.0 | 0.00 | 0.00 | 0.00 | 29 | 1000.0 |
| 20260903204204 | 100 | 197 | 9.0 | 17.0 | 0.00 | 0.00 | 0.00 | 29 | 1000.0 |
| 20260903203704 | 100 | 174 | 10.0 | 17.0 | 0.00 | 0.00 | 0.00 | 28 | 1000.0 |
| 20260903202704 | 100 | 178 | 6.0 | 14.0 | 0.00 | 0.00 | 0.00 | 29 | 1000.0 |
| 20260903202204 | 99 | 130 | 7.0 | 15.0 | 0.00 | 0.00 | 0.00 | 29 | 1000.0 |
| 20260903201703 | 99 | 127 | 10.0 | 16.0 | 0.00 | 0.00 | 0.00 | 28 | 1000.0 |
| 20260903201203 | 100 | 188 | 10.0 | 20.0 | 0.00 | 0.00 | 0.00 | 28 | 1000.0 |
| 20260903200704 | 100 | 193 | 8.0 | 14.0 | 0.00 | 0.00 | 0.00 | 28 | 1000.0 |
| 20260903195703 | 100 | 164 | 9.0 | 15.0 | 0.00 | 0.00 | 0.00 | 29 | 1000.0 |
| 20260903195204 | 100 | 213 | 5.0 | 14.0 | 0.00 | 0.00 | 0.00 | 29 | 1000.0 |
| 20260903194704 | 100 | 169 | 10.0 | 16.0 | 0.00 | 0.00 | 0.00 | 29 | 1000.0 |
| 20260903194203 | 99 | 180 | 9.0 | 14.0 | 0.00 | 0.00 | 0.00 | 29 | 1000.0 |
| 20260903193704 | 99 | 180 | 12.0 | 17.0 | 0.00 | 0.00 | 0.00 | 28 | 1000.0 |
| 20260903193204 | 99 | 190 | 3.0 | 10.0 | 0.00 | 0.00 | 0.00 | 30 | 1000.0 |
| 20260903191703 | 100 | 208 | 6.0 | 15.0 | 0.00 | 0.00 | 0.00 | 30 | 1000.0 |
| 20260903190704 | 99 | 218 | 7.0 | 12.0 | 0.00 | 0.00 | 0.00 | 31 | 1000.0 |
| 20260903185203 | 98 | 189 | 3.0 | 9.0 | 0.00 | 0.00 | 0.00 | 31 | 1000.0 |
| 20260903184704 | 99 | 144 | 9.0 | 16.0 | 0.00 | 0.00 | 0.00 | 31 | 1000.0 |
| 20260903184203 | 98 | 213 | 3.0 | 10.0 | 0.00 | 0.00 | 0.00 | 32 | 1000.0 |
| 20260903183703 | 98 | 208 | 4.0 | 12.0 | 0.00 | 0.00 | 0.00 | 33 | 1000.0 |
| 20260903183204 | 97 | 184 | 5.0 | 14.0 | 0.00 | 0.00 | 0.00 | 32 | 1000.0 |
| 20260903182704 | 98 | 195 | 10.0 | 15.0 | 0.00 | 0.00 | 0.00 | 31 | 1000.0 |
| 20260903182204 | 98 | 179 | 10.0 | 16.0 | 0.00 | 0.00 | 0.00 | 32 | 1000.0 |
| 20260903181703 | 98 | 201 | 12.0 | 22.0 | 0.00 | 0.00 | 0.00 | 33 | 1000.0 |
| 20260903181204 | 98 | 193 | 7.0 | 14.0 | 0.00 | 0.00 | 0.00 | 33 | 1000.0 |
| 20260903180704 | 97 | 196 | 6.0 | 12.0 | 0.00 | 0.00 | 0.00 | 33 | 1000.0 |
| 20260903175704 | 97 | 168 | 10.0 | 16.0 | 0.00 | 0.00 | 0.00 | 33 | 1000.0 |
| 20260903175204 | 97 | 187 | 10.0 | 14.0 | 0.00 | 0.00 | 0.00 | 34 | 1000.0 |
| 20260903174703 | 97 | 181 | 11.0 | 16.0 | 0.00 | 0.00 | 0.00 | 34 | 1000.0 |
| 20260903173703 | 97 | 210 | 9.0 | 16.0 | 0.00 | 0.00 | 0.00 | 36 | 1000.0 |
| 20260903173203 | 97 | 200 | 7.0 | 13.0 | 0.00 | 0.00 | 0.00 | 37 | 1000.0 |
| 20260903172704 | 96 | 202 | 9.0 | 15.0 | 0.00 | 0.00 | 0.00 | 36 | 1000.0 |
| 20260903172204 | 96 | 135 | 10.0 | 13.0 | 0.00 | 0.00 | 0.00 | 36 | 1000.0 |
| 20260903171704 | 96 | 163 | 6.0 | 15.0 | 0.00 | 0.00 | 0.00 | 38 | 1000.0 |
| 20260903171204 | 96 | 145 | 10.0 | 18.0 | 0.00 | 0.00 | 0.00 | 37 | 1000.0 |
| 20260903170703 | 96 | 246 | 5.0 | 12.0 | 0.00 | 0.00 | 0.00 | 39 | 1000.0 |
| 20260903170204 | 95 | 202 | 8.0 | 15.0 | 0.00 | 0.00 | 0.00 | 39 | 1000.0 |
| 20260903165705 | 95 | 224 | 7.0 | 13.0 | 0.00 | 0.00 | 0.00 | 41 | 1000.0 |
| 20260903165203 | 95 | 180 | 6.0 | 12.0 | 0.00 | 0.00 | 0.00 | 41 | 1000.0 |
| 20260903164703 | 95 | 204 | 5.0 | 12.0 | 0.00 | 0.00 | 0.00 | 43 | 1000.0 |
| 20260903164204 | 94 | 197 | 5.0 | 12.0 | 0.00 | 0.00 | 0.00 | 44 | 1000.0 |
| 20260903163704 | 94 | 194 | 8.0 | 14.0 | 0.00 | 0.00 | 0.00 | 44 | 1000.0 |
| 20260903163204 | 94 | 217 | 6.0 | 13.0 | 0.00 | 0.00 | 0.00 | 44 | 1000.0 |
| 20260903162703 | 94 | 204 | 6.0 | 15.0 | 0.00 | 0.00 | 0.00 | 44 | 1000.0 |
| 20260903162204 | 93 | 210 | 8.0 | 14.0 | 0.00 | 0.00 | 0.00 | 43 | 1000.0 |
| 20260903161703 | 93 | 209 | 9.0 | 14.0 | 0.00 | 0.00 | 0.00 | 45 | 1000.0 |
| 20260903160704 | 93 | 194 | 9.0 | 14.0 | 0.00 | 0.00 | 0.00 | 45 | 1000.0 |
| 20260903160203 | 92 | 195 | 11.0 | 18.0 | 0.00 | 0.00 | 0.00 | 46 | 1000.0 |
| 20260903155703 | 92 | 200 | 9.0 | 14.0 | 0.00 | 0.00 | 0.00 | 48 | 1000.0 |
| 20260903155203 | 91 | 184 | 9.0 | 15.0 | 0.00 | 0.00 | 0.00 | 48 | 1000.0 |
| 20260903154704 | 92 | 183 | 9.0 | 18.0 | 0.00 | 0.00 | 0.00 | 49 | 1000.0 |
| 20260903154204 | 91 | 187 | 12.0 | 18.0 | 0.00 | 0.00 | 0.00 | 49 | 1000.0 |
| 20260903153703 | 91 | 189 | 9.0 | 14.0 | 0.00 | 0.00 | 0.00 | 50 | 1000.0 |
| 20260903153204 | 91 | 175 | 7.0 | 15.0 | 0.00 | 0.00 | 0.00 | 51 | 1000.0 |
| 20260903152204 | 90 | 135 | 12.0 | 17.0 | 0.00 | 0.00 | 0.00 | 51 | 1000.0 |
| 20260903151703 | 90 | 200 | 9.0 | 15.0 | 0.00 | 0.00 | 0.00 | 52 | 1000.0 |
| 20260903151204 | 90 | 181 | 8.0 | 13.0 | 0.00 | 0.00 | 0.00 | 53 | 1000.0 |
| 20260903150703 | 89 | 188 | 9.0 | 17.0 | 0.00 | 0.00 | 0.00 | 54 | 1000.0 |
| 20260903145704 | 89 | 172 | 7.0 | 13.0 | 0.00 | 0.00 | 0.00 | 55 | 1000.0 |
| 20260903145204 | 89 | 183 | 7.0 | 10.0 | 0.00 | 0.00 | 0.00 | 55 | 1000.0 |
| 20260903144703 | 89 | 187 | 7.0 | 15.0 | 0.00 | 0.00 | 0.00 | 56 | 1000.0 |
| 20260903144204 | 88 | 187 | 10.0 | 14.0 | 0.00 | 0.00 | 0.00 | 56 | 1000.0 |
| 20260903143704 | 88 | 175 | 10.0 | 14.0 | 0.00 | 0.00 | 0.00 | 56 | 1000.0 |
| 20260903142703 | 88 | 179 | 7.0 | 13.0 | 0.00 | 0.00 | 0.00 | 57 | 1000.0 |
| 20260903142203 | 88 | 135 | 6.0 | 9.0 | 0.00 | 0.00 | 0.00 | 58 | 1000.0 |
| 20260903141703 | 87 | 179 | 6.0 | 10.0 | 0.00 | 0.00 | 0.00 | 58 | 1000.0 |
| 20260903140203 | 86 | 193 | 8.0 | 14.0 | 0.00 | 0.00 | 0.00 | 61 | 1000.0 |
| 20260903135703 | 86 | 176 | 6.0 | 12.0 | 0.00 | 0.00 | 0.00 | 61 | 1000.0 |
| 20260903135204 | 85 | 180 | 6.0 | 10.0 | 0.00 | 0.00 | 0.00 | 62 | 1000.0 |
| 20260903134704 | 85 | 183 | 9.0 | 13.0 | 0.00 | 0.00 | 0.00 | 62 | 1000.0 |
| 20260903134203 | 85 | 193 | 6.0 | 12.0 | 0.00 | 0.00 | 0.00 | 63 | 1000.0 |
| 20260903133704 | 84 | 186 | 9.0 | 14.0 | 0.00 | 0.00 | 0.00 | 63 | 1000.0 |
| 20260903133204 | 85 | 195 | 9.0 | 13.0 | 0.00 | 0.00 | 0.00 | 63 | 1000.0 |
| 20260903132704 | 84 | 202 | 8.0 | 14.0 | 0.00 | 0.00 | 0.00 | 64 | 1000.0 |
| 20260903132203 | 84 | 204 | 6.0 | 12.0 | 0.00 | 0.00 | 0.00 | 64 | 1000.0 |
| 20260903131203 | 84 | 191 | 8.0 | 10.0 | 0.00 | 0.00 | 0.00 | 64 | 1000.0 |
| 20260903130703 | 84 | 199 | 7.0 | 10.0 | 0.00 | 0.00 | 0.00 | 65 | 1000.0 |
| 20260903130204 | 84 | 189 | 7.0 | 9.0 | 0.00 | 0.00 | 0.00 | 65 | 1000.0 |
| 20260903125204 | 83 | 196 | 6.0 | 9.0 | 0.00 | 0.00 | 0.00 | 66 | 1000.0 |
| 20260903124704 | 82 | 202 | 4.0 | 7.0 | 0.00 | 0.00 | 0.00 | 68 | 1000.0 |
| 20260903124203 | 82 | 191 | 6.0 | 9.0 | 0.00 | 0.00 | 0.00 | 69 | 1000.0 |
| 20260903123703 | 81 | 213 | 2.0 | 3.0 | 0.00 | 0.00 | 0.00 | 72 | 1000.0 |
| 20260903123204 | 81 | 165 | 0.0 | 2.0 | 0.00 | 0.00 | 0.00 | 72 | 1000.0 |
| 20260903122704 | 81 | 131 | 2.0 | 2.0 | 0.00 | 0.00 | 0.00 | 72 | 1000.0 |
| 20260903122203 | 81 | 190 | 1.0 | 1.0 | 0.00 | 0.00 | 0.00 | 73 | 1000.0 |
| 20260903121204 | 80 | 174 | 2.0 | 5.0 | 0.00 | 0.00 | 0.00 | 75 | 1000.0 |
| 20260903120703 | 80 | 111 | 2.0 | 3.0 | 0.00 | 0.00 | 0.00 | 76 | 1000.0 |
| 20260903120204 | 80 | 108 | 2.0 | 3.0 | 0.00 | 0.00 | 0.00 | 75 | 1000.0 |
| 20260903115704 | 80 | 126 | 1.0 | 2.0 | 0.00 | 0.00 | 0.00 | 75 | 1000.0 |
| 20260903115204 | 80 | 131 | 2.0 | 3.0 | 0.00 | 0.00 | 0.00 | 75 | 1000.0 |
| 20260903114703 | 80 | 131 | 2.0 | 3.0 | 0.00 | 0.00 | 0.00 | 75 | 1000.0 |
| 20260903114204 | 80 | 143 | 3.0 | 3.0 | 0.00 | 0.00 | 0.00 | 75 | 1000.0 |
| 20260903113704 | 80 | 139 | 3.0 | 5.0 | 0.00 | 0.00 | 0.00 | 76 | 1000.0 |
| 20260903113204 | 79 | 139 | 2.0 | 3.0 | 0.00 | 0.00 | 0.00 | 78 | 1000.0 |
| 20260903112703 | 79 | 137 | 2.0 | 3.0 | 0.00 | 0.00 | 0.00 | 79 | 1000.0 |
| 20260903112203 | 79 | 153 | 3.0 | 5.0 | 0.00 | 0.00 | 0.00 | 79 | 1000.0 |
| 20260903111703 | 79 | 155 | 4.0 | 6.0 | 0.00 | 0.00 | 0.00 | 80 | 1000.0 |
| 20260903111204 | 78 | 130 | 5.0 | 6.0 | 0.00 | 0.00 | 0.00 | 80 | 1000.0 |
| 20260903110704 | 79 | 126 | 4.0 | 6.0 | 0.00 | 0.00 | 0.00 | 79 | 1000.0 |
| 20260903110204 | 79 | 129 | 4.0 | 6.0 | 0.00 | 0.00 | 0.00 | 77 | 1000.0 |
| 20260903105203 | 80 | 140 | 3.0 | 5.0 | 0.00 | 0.00 | 0.00 | 73 | 1000.0 |
| 20260903104204 | 80 | 139 | 3.0 | 3.0 | 0.00 | 0.00 | 0.00 | 72 | 1000.0 |
| 20260903103704 | 80 | 145 | 3.0 | 3.0 | 0.00 | 0.00 | 0.00 | 71 | 1000.0 |
| 20260903103204 | 80 | 143 | 3.0 | 3.0 | 0.00 | 0.00 | 0.00 | 71 | 1000.0 |
| 20260903102703 | 81 | 149 | 3.0 | 5.0 | 0.00 | 0.00 | 0.00 | 70 | 1000.0 |
| 20260903101704 | 81 | 146 | 2.0 | 3.0 | 0.00 | 0.00 | 0.00 | 70 | 1000.0 |
| 20260903100703 | 81 | 145 | 3.0 | 5.0 | 0.00 | 0.00 | 0.00 | 70 | 1000.0 |
| 20260903100203 | 81 | 152 | 3.0 | 6.0 | 0.00 | 0.00 | 0.00 | 70 | 1000.0 |
| 20260903095204 | 80 | 132 | 3.0 | 5.0 | 0.00 | 0.00 | 0.00 | 70 | 1000.0 |
| 20260903094704 | 81 | 129 | 4.0 | 6.0 | 0.00 | 0.00 | 0.00 | 69 | 1000.0 |
| 20260903094203 | 81 | 126 | 3.0 | 5.0 | 0.00 | 0.00 | 0.00 | 68 | 1000.0 |